SCP
0 0 0 0 0 0 0 -0 -0 -0 0 0 0 0 0 0 0 0 0 0 0 0 0 0 0 0 0 0 0 0 0 0 0 0 0 0 0 0 0 0 0 0 0
0 0 0 0 0 0 0 0 0 -0 0 0 0 0 0 0 0 0 0 0 0 0 0 0 0 0 0 0 0 0 0 0 0 0 0 0 0 0 0 0 0 0 0
0 0 0 0 0 0 0 0 0 0 0 0 0 0 0 0 0 0 0 0 0 0 0 0 0 0 0 0 0 0 0 0 0 0 0 0 0 0 0 0 0 0 0
0 0 0 0 0 0 0 0 0 0 0 0 0 0 0 0 0 0 0 0 0 0 0 0 0 0 0 0 0 0 0 0 0 0 0 0 0 0 0 0 0 0 0
0 0 0 0 0 0 0 0 0 0 0 0 0 0 0 0 0 0 0 0 0 0 0 0 0 0 0 0 0 0 0 0 0 0 0 0 0 0 0 0 0 0 0
0 0 0 0 0 0 0 0 0 0 0 0 0 0 0 0 0 0 0 0 0 0 0 0 0 0 0 0 0 0 0 0 0 0 0 0 0 0 0 0 0 0 0
0 0 0 0 0 0 0 0 0 0 0 0 0 0 0 0 0 0 0 0 0 0 0 0 0 0 0 0 0 0 0 0 0 0 0 0 0 0 0 0 0 0 0
0 0 0 0 0 -0 -0 -0 -0 -0 0 0 0 0 0 0 0 0 0 0 0 0 0 0 0 0 0 0 0 0 0 0 0 0 0 0 0 0 0 0 0 0 0
0 0 0 0 0 0 0 0 0 0 0 0 0 0 0 0 0 0 0 0 0 0 0 0 0 0 0 0 0 0 0 0 0 0 0 0 0 0 0 0 0 0 0
0 0 0 0 0 0 0 0 0 0 0 0 0 0 0 0 0 0 0 0 0 0 0 0 0 0 0 0 0 0 0 0 0 0 0 0 0 0 0 0 0 0 0
0 0 0 0 0 0 0 0 0 0 0 0 0 0 0 0 0 0 0 0 0 0 0 0 0 0 0 0 0 0 0 0 0 0 0 0 0 0 0 0 0 0 0
0 0 0 0 0 0 0 0 0 0 0 0 0 0 0 0 0 0 0 0 0 0 0 0 0 0 0 0 0 0 0 0 0 0 0 0 0 0 0 0 0 0 0
0 0 0 0 0 0 0 0 0 0 0 0 0 0 0 0 0 0 0 0 0 0 0 0 0 0 0 0 0 0 0 0 0 0 0 0 0 0 0 0 0 0 0
0 0 0 0 0 0 0 0 0 0 0 0 0 0 0 0 0 0 0 0 0 0 0 0 0 0 0 0 0 0 0 0 0 0 0 0 0 0 0 0 0 0 0
0 0 0 0 0 0 0 0 0 0 0 0 0 0 0 0 0 0 0 0 0 0 0 0 0 0 0 0 0 0 0 0 0 0 0 0 0 0 0 0 0 0 0
0 0 0 0 0 0 0 0 0 0 0 0 0 0 0 0 0 0 0 0 0 0 0 0 0 0 0 0 0 0 0 0 0 0 0 0 0 0 0 0 0 0 0
0 0 0 0 0 0 0 0 0 0 0 0 0 0 0 0 0 0 0 0 0 0 0 0 0 0 0 0 0 0 0 0 0 0 0 0 0 0 0 0 0 0 0
0 0 0 0 0 0 0 0 0 0 0 0 0 0 0 0 0 0 0 0 0 0 0 0 0 0 0 0 0 0 0 0 0 0 0 0 0 0 0 0 0 0 0
0 0 0 0 0 0 0 0 0 0 0 0 0 0 0 0 0 0 0 0 0 0 0 0 0 0 0 0 0 0 0 0 0 0 0 0 0 0 0 0 0 0 0
0 0 0 0 0 0 0 0 0 0 0 0 0 0 0 0 0 0 0 0 0 0 0 0 0 0 0 0 0 0 0 0 0 0 0 0 0 0 0 0 0 0 0
0 0 0 0 0 0 0 0 0 0 0 0 0 0 0 0 0 0 0 0 0 0 0 0 0 0 0 0 0 0 0 0 0 0 0 0 0 0 0 0 0 0 0
0 0 0 0 0 0 0 0 0 0 0 0 0 0 0 0 0 0 0 0 0 0 0 0 0 0 0 0 0 0 0 0 0 0 0 0 0 0 0 0 0 0 0
0 0 0 0 0 0 0 0 0 0 0 0 0 0 0 0 0 0 0 0 0 0 0 0 0 0 0 0 0 0 0 0 0 0 0 0 0 0 0 0 0 0 0
0 0 0 0 0 0 0 0 0 0 0 0 0 0 0 0 0 0 0 0 0 0 0 0 0 0 0 0 0 0 0 0 0 0 0 0 0 0 0 0 0 0 0
0 0 0 0 0 0 0 0 0 0 0 0 0 0 0 0 0 0 0 0 0 0 0 0 0 0 0 0 0 0 0 0 0 0 0 0 0 0 0 0 0 0 0
0 0 0 0 0 0 0 0 0 0 0 0 0 0 0 0 0 0 0 0 0 0 0 0 0 0 0 0 0 0 0 0 0 0 0 0 0 0 0 0 0 0 0
Wind_Speed_500mb
54 55 62 64 64 63 68 69 73 74 70 70 66 65 64 58 55 53 49 47 48 44 43 41 39 39 36 33 36 36 34 29 27 22 25 25 26 23 29 27 30 31 28
66 63 62 68 70 71 72 74 74 75 76 78 75 72 70 65 60 56 55 54 54 52 50 48 47 44 40 33 35 43 42 36 37 33 31 23 26 29 33 35 34 32 33
73 75 72 72 72 78 76 80 77 78 77 78 79 77 78 75 71 70 65 64 61 59 58 54 52 50 48 43 34 40 48 43 40 42 41 17 25 34 39 39 37 40 40
69 64 77 77 75 76 75 79 76 77 80 80 80 83 81 83 78 74 69 68 66 64 63 59 57 55 56 53 45 39 43 45 44 49 51 53 50 29 23 40 45 44 48
83 72 71 83 79 74 73 75 77 78 81 84 84 82 83 83 82 79 77 74 70 70 67 64 63 62 62 61 57 54 53 53 52 54 60 60 63 54 46 36 47 53 55
83 82 75 73 81 79 77 73 73 77 79 82 83 84 83 82 83 83 80 76 74 73 72 71 70 68 69 69 65 63 66 65 65 65 68 69 66 67 64 57 52 54 54
75 78 79 81 85 85 79 77 77 76 76 80 81 83 84 82 83 83 82 81 78 78 78 76 74 73 72 75 75 73 74 74 77 76 76 72 67 67 67 60 60 57 61
52 63 76 79 77 79 82 80 81 75 75 75 77 79 81 82 82 81 82 83 82 80 76 76 75 75 76 76 79 82 81 79 79 77 74 64 62 63 69 70 69 60 60
30 35 55 72 78 82 78 80 80 75 76 68 70 75 76 78 79 78 79 79 78 77 76 75 75 72 73 75 78 85 88 85 86 84 76 73 72 68 73 72 75 65 64
37 36 36 48 61 71 74 78 80 78 71 65 66 67 69 73 75 77 79 80 79 79 78 76 75 73 71 71 74 79 84 94 93 92 91 91 88 85 81 76 73 71 67
34 33 32 35 43 50 56 63 69 70 72 69 65 67 68 71 75 80 81 83 83 85 83 80 77 72 71 69 73 78 77 83 92 99 99 102 98 96 90 69 78 72 68
36 32 32 32 35 38 43 50 54 58 60 64 69 73 76 79 80 83 85 88 90 88 85 79 80 78 78 78 79 79 83 83 81 81 84 102 103 98 91 91 74 73 71
33 31 26 26 28 29 30 33 43 51 55 59 63 66 69 72 76 79 82 83 84 84 79 74 78 80 80 82 85 82 82 87 87 81 85 81 101 93 90 86 76 70 63
41 26 20 24 27 25 22 19 20 24 29 33 39 44 48 54 59 64 70 74 75 72 65 67 68 71 73 76 76 80 85 86 89 86 79 87 82 92 98 78 72 70 67
36 27 23 25 28 24 20 18 19 21 25 28 30 31 35 37 39 42 47 52 55 58 57 61 64 65 69 73 74 73 76 80 88 80 81 77 94 91 88 77 80 72 60
42 34 29 28 32 22 21 20 20 23 26 29 30 31 29 29 29 30 32 34 37 40 45 50 56 59 59 62 66 68 75 78 82 87 77 77 88 73 82 77 69 59 54
46 40 31 30 30 22 23 25 24 24 25 27 27 27 28 29 31 31 33 33 35 39 41 46 50 53 56 57 60 62 69 71 74 78 76 77 81 84 79 76 68 66 65
47 42 37 35 28 24 22 22 23 23 24 24 25 27 28 30 31 32 34 36 38 40 42 43 46 49 47 49 49 49 53 57 58 60 67 68 76 80 75 76 69 70 58
48 46 34 35 32 28 29 28 31 33 32 30 31 32 31 29 30 31 36 40 40 41 42 43 44 46 40 38 40 45 46 48 51 55 56 64 66 72 68 67 62 67 56
49 45 41 39 35 34 32 33 34 33 31 26 24 23 22 22 23 25 28 32 36 39 41 41 41 39 37 36 40 45 49 50 48 53 56 57 58 58 59 57 62 60 57
34 35 39 40 38 36 35 34 34 31 27 24 21 17 15 14 14 15 18 22 25 28 32 34 34 32 33 32 36 40 39 41 42 43 44 46 54 54 53 56 54 47 56
53 49 45 43 41 40 39 38 34 29 24 21 17 13 10 10 11 12 15 17 21 24 26 26 25 24 27 31 33 34 32 30 33 35 36 38 43 46 47 51 48 47 61
50 46 43 42 41 42 42 39 36 32 26 20 14 10 6 4 5 7 13 14 15 18 23 24 24 22 26 26 30 31 29 26 31 33 35 34 33 34 39 42 43 53 59
48 48 47 46 46 46 44 39 35 31 25 20 15 10 6 3 6 12 16 20 22 21 22 20 20 20 20 23 28 30 32 32 30 26 29 31 32 34 40 43 51 62 63
49 48 48 48 48 48 44 40 35 30 26 21 15 8 1 7 11 11 11 14 16 17 19 21 21 20 20 20 23 27 27 27 25 26 28 32 36 41 45 50 53 61 64
56 56 55 53 52 48 42 37 32 27 21 16 11 6 4 2 7 11 10 11 15 17 19 19 20 19 20 23 23 23 25 22 22 29 30 30 34 40 47 53 58 62 66
Wind_Direction_500mb
226 226 222 218 218 222 222 223 220 222 221 230 221 223 226 225 225 227 231 232 235 236 238 240 241 243 246 254 249 235 225 219 213 231 242 248 238 267 283 284 287 286 286
227 223 220 220 222 223 224 227 228 224 222 227 234 230 231 231 233 235 235 236 237 239 241 243 244 245 247 247 242 235 228 223 220 234 245 214 229 231 255 273 276 282 285
230 228 221 219 222 224 224 226 228 230 227 228 233 236 233 235 234 235 236 238 240 242 244 246 247 246 246 246 249 242 231 232 228 232 237 226 231 237 243 251 263 274 278
230 233 228 223 221 226 229 230 232 233 234 231 234 236 234 235 238 240 241 242 244 245 246 249 248 249 248 246 246 241 240 232 234 236 243 250 252 237 228 243 251 257 266
238 235 231 228 228 230 230 233 235 237 239 236 236 238 240 241 244 245 246 245 248 250 250 251 251 249 248 250 247 242 237 234 242 246 253 246 240 245 247 249 245 252 262
237 235 236 233 230 232 233 235 238 241 240 238 238 241 242 243 245 247 249 251 252 252 254 255 254 251 250 250 251 249 245 246 245 251 255 255 253 249 248 249 255 254 253
238 233 231 229 227 229 235 237 238 241 242 241 242 243 245 246 250 253 255 255 256 257 258 258 259 258 255 253 250 250 250 249 249 251 255 261 261 260 263 259 259 257 252
235 231 231 230 231 234 236 238 239 241 243 244 246 247 248 250 252 254 256 260 262 264 265 265 264 266 264 260 256 253 254 255 254 255 257 258 262 264 268 270 260 252 246
221 228 232 232 233 233 234 238 241 244 243 249 251 250 251 252 253 257 260 261 264 265 266 267 267 267 267 265 263 259 256 256 256 254 253 254 255 259 261 260 261 258 251
215 222 230 229 228 232 239 243 244 245 248 251 252 254 256 257 259 259 259 261 264 265 268 270 271 272 270 268 265 263 261 258 257 256 256 257 254 254 253 256 256 256 254
208 211 213 214 222 229 234 238 242 243 243 245 250 252 254 256 258 258 261 263 266 267 269 271 272 273 270 267 265 260 265 266 261 259 257 258 258 257 252 254 253 253 250
198 202 207 210 215 221 230 236 237 239 241 244 247 250 253 255 259 262 265 267 269 272 275 277 273 273 271 269 267 265 265 268 265 268 266 262 258 257 252 248 250 250 246
179 161 166 178 183 191 203 216 225 231 236 240 244 247 250 252 254 257 260 263 267 269 271 270 270 271 272 273 269 268 271 269 268 268 270 268 263 259 251 250 249 245 240
155 159 167 176 180 186 193 195 203 215 224 234 241 245 249 251 252 252 254 257 260 264 268 268 270 275 274 274 276 277 274 273 271 277 271 269 268 260 265 259 252 239 239
181 183 181 184 181 188 196 208 217 221 225 231 237 241 243 247 250 253 256 256 255 255 254 256 260 264 268 273 275 276 276 275 273 270 279 277 269 269 246 266 248 238 240
203 199 195 198 196 205 214 223 230 233 237 243 247 250 254 257 259 258 258 260 263 264 264 265 265 266 266 264 262 262 267 268 271 273 279 274 276 262 266 253 246 245 230
206 198 208 201 206 228 238 236 234 236 236 239 243 246 249 251 253 254 256 258 259 260 262 263 266 269 271 271 270 268 266 263 267 273 274 274 272 262 260 247 239 224 229
203 210 207 204 211 218 218 220 229 242 249 248 246 247 250 252 255 258 262 263 263 264 266 268 270 272 273 272 274 271 267 265 266 268 273 272 273 264 256 246 236 235 229
226 218 217 215 220 221 224 240 246 244 239 238 243 247 250 253 257 259 258 261 264 267 269 272 273 275 280 281 280 282 280 275 275 271 270 269 269 268 254 248 240 238 237
229 226 219 218 223 230 234 247 241 229 229 232 238 245 250 258 268 274 278 278 278 278 279 280 281 282 284 279 280 284 281 282 282 275 279 275 264 258 250 244 238 233 236
222 222 222 224 229 235 243 232 223 219 218 219 222 228 242 251 257 265 271 275 279 282 281 282 281 285 285 281 282 282 289 288 290 291 288 282 272 263 247 245 245 245 255
228 227 222 221 223 223 217 209 205 202 197 197 199 207 222 246 263 277 280 283 285 283 278 276 277 281 283 282 283 286 293 295 293 292 290 284 278 272 253 247 244 250 255
207 207 213 216 214 206 199 196 189 187 184 181 186 186 197 227 289 309 313 313 312 312 309 308 299 286 280 288 293 288 292 303 306 304 297 289 277 263 247 248 258 255 254
200 203 201 201 197 192 189 185 183 177 174 174 176 184 191 277 307 324 322 323 324 318 312 309 313 317 312 295 283 289 292 292 293 299 299 291 279 262 260 255 254 253 258
197 196 194 191 188 184 182 178 176 172 173 171 170 170 359 328 320 315 318 330 333 329 330 328 330 333 325 309 298 285 281 285 288 284 279 277 275 269 263 256 257 260 263
190 188 187 187 183 181 179 178 175 172 171 173 171 180 215 261 324 326 332 337 336 339 336 339 338 338 332 323 316 308 296 283 272 274 275 281 278 272 269 268 267 265 268
Wind_Speed_850mb
54 55 62 64 64 63 68 69 73 74 70 70 66 65 64 58 55 53 49 47 48 44 43 41 39 39 36 33 36 36 34 29 27 22 25 25 26 23 29 27 30 31 28
66 63 62 68 70 71 72 74 74 75 76 78 75 72 70 65 60 56 55 54 54 52 50 48 47 44 40 33 35 43 42 36 37 33 31 23 26 29 33 35 34 32 33
73 75 72 72 72 78 76 80 77 78 77 78 79 77 78 75 71 70 65 64 61 59 58 54 52 50 48 43 34 40 48 43 40 42 41 17 25 34 39 39 37 40 40
69 64 77 77 75 76 75 79 76 77 80 80 80 83 81 83 78 74 69 68 66 64 63 59 57 55 56 53 45 39 43 45 44 49 51 53 50 29 23 40 45 44 48
83 72 71 83 79 74 73 75 77 78 81 84 84 82 83 83 82 79 77 74 70 70 67 64 63 62 62 61 57 54 53 53 52 54 60 60 63 54 46 36 47 53 55
83 82 75 73 81 79 77 73 73 77 79 82 83 84 83 82 83 83 80 76 74 73 72 71 70 68 69 69 65 63 66 65 65 65 68 69 66 67 64 57 52 54 54
75 78 79 81 85 85 79 77 77 76 76 80 81 83 84 82 83 83 82 81 78 78 78 76 74 73 72 75 75 73 74 74 77 76 76 72 67 67 67 60 60 57 61
52 63 76 79 77 79 82 80 81 75 75 75 77 79 81 82 82 81 82 83 82 80 76 76 75 75 76 76 79 82 81 79 79 77 74 64 62 63 69 70 69 60 60
30 35 55 72 78 82 78 80 80 75 76 68 70 75 76 78 79 78 79 79 78 77 76 75 75 72 73 75 78 85 88 85 86 84 76 73 72 68 73 72 75 65 64
37 36 36 48 61 71 74 78 80 78 71 65 66 67 69 73 75 77 79 80 79 79 78 76 75 73 71 71 74 79 84 94 93 92 91 91 88 85 81 76 73 71 67
34 33 32 35 43 50 56 63 69 70 72 69 65 67 68 71 75 80 81 83 83 85 83 80 77 72 71 69 73 78 77 83 92 99 99 102 98 96 90 69 78 72 68
36 32 32 32 35 38 43 50 54 58 60 64 69 73 76 79 80 83 85 88 90 88 85 79 80 78 78 78 79 79 83 83 81 81 84 102 103 98 91 91 74 73 71
33 31 26 26 28 29 30 33 43 51 55 59 63 66 69 72 76 79 82 83 84 84 79 74 78 80 80 82 85 82 82 87 87 81 85 81 101 93 90 86 76 70 63
41 26 20 24 27 25 22 19 20 24 29 33 39 44 48 54 59 64 70 74 75 72 65 67 68 71 73 76 76 80 85 86 89 86 79 87 82 92 98 78 72 70 67
36 27 23 25 28 24 20 18 19 21 25 28 30 31 35 37 39 42 47 52 55 58 57 61 64 65 69 73 74 73 76 80 88 80 81 77 94 91 88 77 80 72 60
42 34 29 28 32 22 21 20 20 23 26 29 30 31 29 29 29 30 32 34 37 40 45 50 56 59 59 62 66 68 75 78 82 87 77 77 88 73 82 77 69 59 54
46 40 31 30 30 22 23 25 24 24 25 27 27 27 28 29 31 31 33 33 35 39 41 46 50 53 56 57 60 62 69 71 74 78 76 77 81 84 79 76 68 66 65
47 42 37 35 28 24 22 22 23 23 24 24 25 27 28 30 31 32 34 36 38 40 42 43 46 49 47 49 49 49 53 57 58 60 67 68 76 80 75 76 69 70 58
48 46 34 35 32 28 29 28 31 33 32 30 31 32 31 29 30 31 36 40 40 41 42 43 44 46 40 38 40 45 46 48 51 55 56 64 66 72 68 67 62 67 56
49 45 41 39 35 34 32 33 34 33 31 26 24 23 22 22 23 25 28 32 36 39 41 41 41 39 37 36 40 45 49 50 48 53 56 57 58 58 59 57 62 60 57
34 35 39 40 38 36 35 34 34 31 27 24 21 17 15 14 14 15 18 22 25 28 32 34 34 32 33 32 36 40 39 41 42 43 44 46 54 54 53 56 54 47 56
53 49 45 43 41 40 39 38 34 29 24 21 17 13 10 10 11 12 15 17 21 24 26 26 25 24 27 31 33 34 32 30 33 35 36 38 43 46 47 51 48 47 61
50 46 43 42 41 42 42 39 36 32 26 20 14 10 6 4 5 7 13 14 15 18 23 24 24 22 26 26 30 31 29 26 31 33 35 34 33 34 39 42 43 53 59
48 48 47 46 46 46 44 39 35 31 25 20 15 10 6 3 6 12 16 20 22 21 22 20 20 20 20 23 28 30 32 32 30 26 29 31 32 34 40 43 51 62 63
49 48 48 48 48 48 44 40 35 30 26 21 15 8 1 7 11 11 11 14 16 17 19 21 21 20 20 20 23 27 27 27 25 26 28 32 36 41 45 50 53 61 64
56 56 55 53 52 48 42 37 32 27 21 16 11 6 4 2 7 11 10 11 15 17 19 19 20 19 20 23 23 23 25 22 22 29 30 30 34 40 47 53 58 62 66
Wind_Direction_850mb
226 226 222 218 218 222 222 223 220 222 221 230 221 223 226 225 225 227 231 232 235 236 238 240 241 243 246 254 249 235 225 219 213 231 242 248 238 267 283 284 287 286 286
227 223 220 220 222 223 224 227 228 224 222 227 234 230 231 231 233 235 235 236 237 239 241 243 244 245 247 247 242 235 228 223 220 234 245 214 229 231 255 273 276 282 285
230 228 221 219 222 224 224 226 228 230 227 228 233 236 233 235 234 235 236 238 240 242 244 246 247 246 246 246 249 242 231 232 228 232 237 226 231 237 243 251 263 274 278
230 233 228 223 221 226 229 230 232 233 234 231 234 236 234 235 238 240 241 242 244 245 246 249 248 249 248 246 246 241 240 232 234 236 243 250 252 237 228 243 251 257 266
238 235 231 228 228 230 230 233 235 237 239 236 236 238 240 241 244 245 246 245 248 250 250 251 251 249 248 250 247 242 237 234 242 246 253 246 240 245 247 249 245 252 262
237 235 236 233 230 232 233 235 238 241 240 238 238 241 242 243 245 247 249 251 252 252 254 255 254 251 250 250 251 249 245 246 245 251 255 255 253 249 248 249 255 254 253
238 233 231 229 227 229 235 237 238 241 242 241 242 243 245 246 250 253 255 255 256 257 258 258 259 258 255 253 250 250 250 249 249 251 255 261 261 260 263 259 259 257 252
235 231 231 230 231 234 236 238 239 241 243 244 246 247 248 250 252 254 256 260 262 264 265 265 264 266 264 260 256 253 254 255 254 255 257 258 262 264 268 270 260 252 246
221 228 232 232 233 233 234 238 241 244 243 249 251 250 251 252 253 257 260 261 264 265 266 267 267 267 267 265 263 259 256 256 256 254 253 254 255 259 261 260 261 258 251
215 222 230 229 228 232 239 243 244 245 248 251 252 254 256 257 259 259 259 261 264 265 268 270 271 272 270 268 265 263 261 258 257 256 256 257 254 254 253 256 256 256 254
208 211 213 214 222 229 234 238 242 243 243 245 250 252 254 256 258 258 261 263 266 267 269 271 272 273 270 267 265 260 265 266 261 259 257 258 258 257 252 254 253 253 250
198 202 207 210 215 221 230 236 237 239 241 244 247 250 253 255 259 262 265 267 269 272 275 277 273 273 271 269 267 265 265 268 265 268 266 262 258 257 252 248 250 250 246
179 161 166 178 183 191 203 216 225 231 236 240 244 247 250 252 254 257 260 263 267 269 271 270 270 271 272 273 269 268 271 269 268 268 270 268 263 259 251 250 249 245 240
155 159 167 176 180 186 193 195 203 215 224 234 241 245 249 251 252 252 254 257 260 264 268 268 270 275 274 274 276 277 274 273 271 277 271 269 268 260 265 259 252 239 239
181 183 181 184 181 188 196 208 217 221 225 231 237 241 243 247 250 253 256 256 255 255 254 256 260 264 268 273 275 276 276 275 273 270 279 277 269 269 246 266 248 238 240
203 199 195 198 196 205 214 223 230 233 237 243 247 250 254 257 259 258 258 260 263 264 264 265 265 266 266 264 262 262 267 268 271 273 279 274 276 262 266 253 246 245 230
206 198 208 201 206 228 238 236 234 236 236 239 243 246 249 251 253 254 256 258 259 260 262 263 266 269 271 271 270 268 266 263 267 273 274 274 272 262 260 247 239 224 229
203 210 207 204 211 218 218 220 229 242 249 248 246 247 250 252 255 258 262 263 263 264 266 268 270 272 273 272 274 271 267 265 266 268 273 272 273 264 256 246 236 235 229
226 218 217 215 220 221 224 240 246 244 239 238 243 247 250 253 257 259 258 261 264 267 269 272 273 275 280 281 280 282 280 275 275 271 270 269 269 268 254 248 240 238 237
229 226 219 218 223 230 234 247 241 229 229 232 238 245 250 258 268 274 278 278 278 278 279 280 281 282 284 279 280 284 281 282 282 275 279 275 264 258 250 244 238 233 236
222 222 222 224 229 235 243 232 223 219 218 219 222 228 242 251 257 265 271 275 279 282 281 282 281 285 285 281 282 282 289 288 290 291 288 282 272 263 247 245 245 245 255
228 227 222 221 223 223 217 209 205 202 197 197 199 207 222 246 263 277 280 283 285 283 278 276 277 281 283 282 283 286 293 295 293 292 290 284 278 272 253 247 244 250 255
207 207 213 216 214 206 199 196 189 187 184 181 186 186 197 227 289 309 313 313 312 312 309 308 299 286 280 288 293 288 292 303 306 304 297 289 277 263 247 248 258 255 254
200 203 201 201 197 192 189 185 183 177 174 174 176 184 191 277 307 324 322 323 324 318 312 309 313 317 312 295 283 289 292 292 293 299 299 291 279 262 260 255 254 253 258
197 196 194 191 188 184 182 178 176 172 173 171 170 170 359 328 320 315 318 330 333 329 330 328 330 333 325 309 298 285 281 285 288 284 279 277 275 269 263 256 257 260 263
190 188 187 187 183 181 179 178 175 172 171 173 171 180 215 261 324 326 332 337 336 339 336 339 338 338 332 323 316 308 296 283 272 274 275 281 278 272 269 268 267 265 268